Hourly Weather Jewłach

Today, 25 September, Friday

Time Temperature Precipitation Wind Pressure Humidity
00:00 +22°C° 0 mm 3 mps 760 mmHg 60%
01:00 +21°C° 0.1 mm 2 mps 760 mmHg 63%
02:00 +21°C° 0.1 mm 2 mps 760 mmHg 65%
03:00 +22°C° 0.1 mm 1 mps 760 mmHg 67%
04:00 +21°C° 0 mm 1 mps 760 mmHg 68%
05:00 +19°C° 0 mm 0 mps 760 mmHg 70%
06:00 +19°C° 0 mm 0 mps 760 mmHg 71%
07:00 +21°C° 0 mm 0 mps 760 mmHg 63%
08:00 +25°C° 0 mm 1 mps 760 mmHg 55%
09:00 +27°C° 0 mm 1 mps 760 mmHg 47%
10:00 +28°C° 0 mm 2 mps 759 mmHg 42%
11:00 +30°C° 0 mm 2 mps 759 mmHg 37%
12:00 +31°C° 0 mm 2 mps 759 mmHg 32%
13:00 +33°C° 0 mm 3 mps 758 mmHg 31%
14:00 +33°C° 0 mm 3 mps 758 mmHg 29%
15:00 +34°C° 0 mm 3 mps 758 mmHg 28%
16:00 +31°C° 0 mm 3 mps 758 mmHg 30%
17:00 +30°C° 0 mm 3 mps 758 mmHg 33%
18:00 +29°C° 0 mm 2 mps 758 mmHg 35%
19:00 +28°C° 0 mm 3 mps 758 mmHg 35%
20:00 +27°C° 0 mm 4 mps 758 mmHg 34%
21:00 +26°C° 0 mm 5 mps 758 mmHg 34%
22:00 +25°C° 0 mm 4 mps 758 mmHg 40%
23:00 +23°C° 0 mm 4 mps 758 mmHg 46%

Tomorrow, 26 September, Saturday

Time Temperature Precipitation Wind Pressure Humidity
00:00 +22°C° 0 mm 3 mps 758 mmHg 52%
01:00 +21°C° 0 mm 2 mps 758 mmHg 56%
02:00 +22°C° 0 mm 1 mps 758 mmHg 60%
03:00 +21°C° 0 mm 1 mps 757 mmHg 64%
04:00 +21°C° 0 mm 1 mps 758 mmHg 64%
05:00 +19°C° 0 mm 0 mps 758 mmHg 64%
06:00 +19°C° 0 mm 0 mps 758 mmHg 65%
07:00 +23°C° 0.2 mm 1 mps 758 mmHg 59%
08:00 +24°C° 0.2 mm 1 mps 758 mmHg 53%
09:00 +26°C° 0.2 mm 1 mps 758 mmHg 47%
10:00 +27°C° 0.1 mm 2 mps 757 mmHg 40%
11:00 +29°C° 0.1 mm 2 mps 757 mmHg 33%
12:00 +30°C° 0.1 mm 3 mps 757 mmHg 27%
13:00 +31°C° 0 mm 3 mps 757 mmHg 25%
14:00 +31°C° 0 mm 3 mps 757 mmHg 24%
15:00 +33°C° 0 mm 3 mps 756 mmHg 22%
16:00 +30°C° 0 mm 3 mps 757 mmHg 25%
17:00 +29°C° 0 mm 3 mps 757 mmHg 27%
18:00 +27°C° 0 mm 3 mps 757 mmHg 29%
19:00 +26°C° 0 mm 3 mps 758 mmHg 34%
20:00 +26°C° 0 mm 3 mps 758 mmHg 38%
21:00 +25°C° 0 mm 4 mps 759 mmHg 43%
22:00 +24°C° 0 mm 3 mps 759 mmHg 46%
23:00 +23°C° 0 mm 2 mps 759 mmHg 50%

Day after tomorrow, 27 September, Sunday

Time Temperature Precipitation Wind Pressure Humidity
00:00 +23°C° 0 mm 2 mps 759 mmHg 54%
01:00 +22°C° 0 mm 1 mps 759 mmHg 56%
02:00 +22°C° 0 mm 1 mps 759 mmHg 58%
03:00 +21°C° 0 mm 1 mps 759 mmHg 59%
04:00 +19°C° 0 mm 0 mps 759 mmHg 60%
05:00 +18°C° 0 mm 0 mps 760 mmHg 61%
06:00 +18°C° 0 mm 0 mps 760 mmHg 62%
07:00 +20°C° 0 mm 0 mps 760 mmHg 54%
08:00 +25°C° 0 mm 1 mps 760 mmHg 46%
09:00 +27°C° 0 mm 1 mps 761 mmHg 38%
10:00 +28°C° 0 mm 2 mps 760 mmHg 34%
11:00 +30°C° 0 mm 2 mps 760 mmHg 29%
12:00 +31°C° 0 mm 3 mps 760 mmHg 25%
13:00 +31°C° 0 mm 3 mps 760 mmHg 24%
14:00 +33°C° 0 mm 3 mps 760 mmHg 24%
15:00 +33°C° 0 mm 3 mps 760 mmHg 23%
16:00 +31°C° 0 mm 3 mps 761 mmHg 25%
17:00 +29°C° 0 mm 3 mps 761 mmHg 28%
18:00 +28°C° 0 mm 3 mps 761 mmHg 30%
19:00 +26°C° 0 mm 4 mps 762 mmHg 35%
20:00 +23°C° 0 mm 5 mps 763 mmHg 40%
21:00 +22°C° 0 mm 6 mps 763 mmHg 45%
22:00 +21°C° 0 mm 5 mps 764 mmHg 47%
23:00 +20°C° 0 mm 4 mps 764 mmHg 48%

28 September, Monday

Time Temperature Precipitation Wind Pressure Humidity
00:00 +20°C° 0 mm 3 mps 764 mmHg 49%
01:00 +19°C° 0 mm 3 mps 764 mmHg 50%
02:00 +19°C° 0 mm 2 mps 764 mmHg 50%
03:00 +18°C° 0 mm 2 mps 765 mmHg 51%
04:00 +18°C° 0 mm 2 mps 765 mmHg 51%
05:00 +18°C° 0 mm 2 mps 765 mmHg 52%
06:00 +19°C° 0 mm 1 mps 766 mmHg 52%
07:00 +20°C° 0 mm 2 mps 766 mmHg 46%
08:00 +22°C° 0 mm 3 mps 766 mmHg 40%
09:00 +25°C° 0 mm 3 mps 766 mmHg 33%
10:00 +26°C° 0 mm 3 mps 765 mmHg 31%
11:00 +27°C° 0 mm 3 mps 765 mmHg 28%
12:00 +29°C° 0 mm 4 mps 765 mmHg 26%
13:00 +29°C° 0 mm 4 mps 765 mmHg 25%
14:00 +30°C° 0 mm 4 mps 765 mmHg 24%
15:00 +30°C° 0 mm 4 mps 764 mmHg 23%
16:00 +29°C° 0 mm 4 mps 765 mmHg 25%
17:00 +27°C° 0 mm 4 mps 765 mmHg 26%
18:00 +26°C° 0 mm 3 mps 765 mmHg 28%
19:00 +23°C° 0 mm 4 mps 765 mmHg 33%
20:00 +22°C° 0 mm 4 mps 766 mmHg 37%
21:00 +20°C° 0 mm 5 mps 766 mmHg 42%
22:00 +20°C° 0 mm 4 mps 766 mmHg 45%
23:00 +19°C° 0 mm 4 mps 766 mmHg 48%

29 September, Tuesday

Time Temperature Precipitation Wind Pressure Humidity
00:00 +18°C° 0 mm 3 mps 766 mmHg 51%
01:00 +18°C° 0 mm 2 mps 765 mmHg 52%
02:00 +17°C° 0 mm 2 mps 765 mmHg 53%
03:00 +18°C° 0 mm 1 mps 765 mmHg 54%
04:00 +18°C° 0 mm 1 mps 765 mmHg 55%
05:00 +16°C° 0 mm 1 mps 765 mmHg 57%
06:00 +15°C° 0 mm 0 mps 765 mmHg 58%
07:00 +19°C° 0 mm 1 mps 765 mmHg 52%
08:00 +21°C° 0 mm 1 mps 765 mmHg 47%
09:00 +23°C° 0 mm 1 mps 764 mmHg 41%
10:00 +25°C° 0 mm 2 mps 764 mmHg 38%
11:00 +26°C° 0 mm 2 mps 763 mmHg 34%
12:00 +27°C° 0 mm 3 mps 763 mmHg 30%
13:00 +28°C° 0 mm 3 mps 762 mmHg 29%
14:00 +29°C° 0 mm 3 mps 762 mmHg 27%
15:00 +29°C° 0 mm 3 mps 761 mmHg 25%
16:00 +28°C° 0 mm 3 mps 761 mmHg 27%
17:00 +26°C° 0 mm 3 mps 761 mmHg 29%
18:00 +25°C° 0 mm 2 mps 761 mmHg 31%
19:00 +24°C° 0 mm 3 mps 761 mmHg 38%
20:00 +22°C° 0 mm 4 mps 762 mmHg 45%
21:00 +21°C° 0 mm 6 mps 762 mmHg 52%
22:00 +20°C° 0 mm 5 mps 761 mmHg 56%
23:00 +19°C° 0 mm 4 mps 761 mmHg 59%

30 September, Wednesday

Time Temperature Precipitation Wind Pressure Humidity
00:00 +19°C° 0 mm 3 mps 761 mmHg 63%
01:00 +18°C° 0 mm 3 mps 761 mmHg 65%
02:00 +18°C° 0 mm 2 mps 760 mmHg 66%
03:00 +17°C° 0 mm 2 mps 760 mmHg 68%
04:00 +17°C° 0 mm 2 mps 760 mmHg 69%
05:00 +18°C° 0 mm 1 mps 760 mmHg 71%
06:00 +18°C° 0 mm 1 mps 760 mmHg 72%
07:00 +19°C° 0 mm 1 mps 760 mmHg 65%
08:00 +20°C° 0 mm 2 mps 759 mmHg 58%
09:00 +23°C° 0 mm 2 mps 759 mmHg 51%
10:00 +24°C° 0 mm 2 mps 759 mmHg 47%
11:00 +25°C° 0 mm 3 mps 758 mmHg 44%
12:00 +27°C° 0 mm 3 mps 758 mmHg 41%
13:00 +27°C° 0 mm 3 mps 757 mmHg 39%
14:00 +28°C° 0 mm 3 mps 757 mmHg 37%
15:00 +29°C° 0 mm 3 mps 757 mmHg 35%
16:00 +27°C° 0 mm 3 mps 757 mmHg 38%
17:00 +26°C° 0 mm 3 mps 757 mmHg 42%
18:00 +25°C° 0 mm 3 mps 757 mmHg 45%
19:00 +24°C° 0 mm 3 mps 758 mmHg 47%
20:00 +22°C° 0 mm 4 mps 758 mmHg 48%
21:00 +21°C° 0 mm 5 mps 758 mmHg 50%
22:00 +20°C° 0 mm 4 mps 758 mmHg 52%
23:00 +19°C° 0 mm 3 mps 758 mmHg 54%
Show more